Location: Fremont
(37.5480°N, 121.9880°W)
Time: 23:55:47
(UTC-08:00)

Daily predictions for brighter satellites

Satellite Brightness Start Highest point End
(mag) Time Altitude Azimuth Time Altitude Azimuth Time Altitude Azimuth
USA 215 3.8 17:34:28 10° E 17:40:24 38° NNE 17:46:21 10° NNW
IDEFIX/ARIANE 42P 2.8 17:38:14 10° S 17:43:25 81° WSW 17:48:41 10° NNW
Cosmos 990 Rocket 4.0 17:39:43 10° NNW 17:44:57 63° ENE 17:50:08 10° SSE
Cosmos 332 Rocket 4.0 17:41:48 10° S 17:46:26 51° ESE 17:51:08 10° NNE
Meteor 1-28 Rocket 4.3 17:47:26 10° NE 17:50:32 25° E 17:53:38 10° SSE
Cosmos 2058 4.3 17:49:38 10° SE 17:52:27 18° E 17:55:16 10° NE
Cosmos 2263 Rocket 4.4 17:48:03 10° NW 17:52:56 30° WSW 17:57:46 10° SSW
SJ-6B 4.5 17:51:17 10° ESE 17:53:41 15° ENE 17:56:06 10° NNE
Cosmos 1743 Rocket 3.6 17:49:41 10° S 17:54:06 66° E 17:58:33 10° NNE
Tsikada Rocket 4.3 17:47:53 10° S 17:54:14 80° W 18:00:40 10° N
Cosmos 841 Rocket 3.5 17:52:19 10° SSW 17:57:34 81° ESE 18:02:52 10° NNE
Cosmos 2333 4.3 17:52:33 10° SSW 17:58:10 87° WNW 18:03:47 10° NNE
Cosmos 1844 Rocket 2.7 17:52:39 10° NNW 17:58:15 59° ENE 18:03:47 10° SE
Molniya-1 4.1 17:58:17 10° SW 18:00:42 61° NW 18:04:52 10° NNE
Cosmos 1328 Rocket 3.5 17:58:21 10° N 18:02:48 73° E 18:07:13 10° SSE
Aureole 2 Rocket 4.1 18:06:12 10° SE 18:08:37 17° E 18:09:41 16° ENE
Cosmos 1515 Rocket 3.6 18:04:12 10° N 18:08:38 62° E 18:13:01 10° SSE
Cosmos 1980 4.0 18:03:33 10° S 18:08:56 47° ESE 18:14:21 10° NE
Cosmos 1937 Rocket 4.2 18:03:52 10° NNW 18:08:58 59° WSW 18:14:05 10° S
Cosmos 2360 Rocket 4.1 18:04:15 10° WSW 18:08:59 27° WNW 18:13:44 10° N
ALOS 3.8 18:07:14 10° E 18:09:54 15° ENE 18:12:35 10° NNE
SKYMED 2 3.5 18:06:31 10° NNE 18:10:53 75° ESE 18:15:12 10° S
Cosmos 44 3.9 18:07:20 10° S 18:12:21 44° ESE 18:16:36 13° NE
Cosmos 2151 3.2 18:09:05 10° SSE 18:13:05 44° E 18:17:06 10° NNE
Atlas Centaur 2 3.7 18:09:14 10° WSW 18:13:20 24° SSW 18:16:50 10° SE
Cosmos 371 Rocket 3.2 18:12:29 10° SSW 18:17:16 78° ESE 18:22:05 10° NNE
Elektron 3 4.2 18:12:34 10° NW 18:17:22 86° SW 18:20:20 10° SSE
Cosmos 2333 Rocket 2.2 18:13:40 10° SSW 18:19:16 70° ESE 18:24:54 10° NNE
Abrixas rocket 3.3 18:17:07 10° WNW 18:20:19 46° SW 18:23:32 10° SE
Cosmos 1500 Rocket 3.5 18:17:07 10° S 18:21:26 85° W 18:25:47 10° N
Cosmos 1151 Rocket 3.0 18:17:53 10° N 18:22:06 57° E 18:26:18 10° SSE
Cosmos 1340 Rocket 3.6 18:20:01 10° SSE 18:23:29 30° E 18:25:26 19° NE
CENTAUR R/B 3.4 18:18:12 10° WSW 18:24:00 46° NW 18:30:33 10° NNE
Cosmos 836 Rocket 4.5 18:19:38 10° SSW 18:24:51 90° ESE 18:30:09 10° NNE
Cosmos 1634 Rocket 3.9 18:19:14 10° N 18:25:27 83° E 18:31:36 10° S
OTV 4 0.3 18:27:44 10° W 18:30:42 87° N 18:31:42 38° E
Lacrosse 5 4.2 18:29:17 10° NW 18:31:16 12° NNW 18:33:17 10° N
Meteor 1-27 4.4 18:27:04 10° N 18:32:44 52° ENE 18:38:23 10° SSE
SL-14 R/B 3.1 18:30:40 10° S 18:34:33 83° E 18:38:31 10° N
BREEZE M DEB (TANK) 3.2 18:33:12 10° NNW 18:34:34 18° N 18:34:34 18° N
Cosmos 44 Rocket 3.6 18:30:59 10° SW 18:36:06 71° WNW 18:40:37 13° NNE
Cosmos 2219 Rocket 2.6 18:30:48 10° SSW 18:36:24 65° WNW 18:42:01 10° NNE
METEOR-M 4.1 18:34:30 10° SSE 18:39:46 63° ENE 18:45:04 10° N
Sich 1 4.3 18:36:13 10° SE 18:38:47 23° ESE 18:38:47 23° ESE
Cosmos 1484 Rocket 4.3 18:36:33 10° SSW 18:40:12 40° W 18:43:57 10° NNW
Cosmos 2278 Rocket 2.2 18:36:42 10° NNW 18:42:19 59° ENE 18:47:54 10° SE
OAO 3 Rocket 4.4 18:38:02 10° W 18:42:32 37° SSW 18:46:20 13° SE
Meteor 2-10 3.9 18:37:53 10° N 18:42:54 60° E 18:48:02 10° SSE
Resurs 01 Rocket 2.9 18:46:15 23° NNE 18:46:15 23° NNE 18:48:24 10° N
Cosmos 1626 3.6 18:44:14 10° SSE 18:45:57 22° SE 18:45:57 22° SE
Cosmos 1844 4.2 18:47:06 10° NNW 18:52:48 64° WSW 18:58:30 10° S
NOSS 0 Rocket 4.2 18:47:46 10° SSW 18:53:58 68° WNW 19:00:11 10° NNE
Cosmos 372 Rocket 3.8 18:52:06 10° NNW 18:57:12 71° ENE 19:02:16 10° SSE
COSMO-SKYMED 1 4.4 18:54:57 10° N 18:58:44 30° WNW 19:02:32 10° SW
Lacrosse 5 rocket 2.9 18:56:57 10° NNW 18:58:43 21° N 18:58:43 21° N
Cosmos 2084 4.5 18:56:38 10° WSW 19:00:17 36° NW 19:02:05 23° N
Cosmos 1300 3.7 18:56:47 10° NNW 19:00:28 47° W 19:04:09 10° SSW
Hubble Space Telescope 3.3 18:58:45 10° SW 19:01:04 15° SSW 19:03:23 10° SSE
Cosmos 304 Rocket 3.6 19:00:39 10° S 19:05:25 69° ESE 19:06:37 48° NE
Cosmos 2237 Rocket 2.6 19:00:10 10° SW 19:05:43 61° WNW 19:10:28 15° NNE
Cosmos 1726 3.8 19:04:09 10° NNW 19:07:37 35° W 19:11:04 10° SSW
Cosmos 540 Rocket 4.2 19:04:29 10° SW 19:09:30 51° WNW 19:14:11 12° N
SL-16 R/B 2.2 19:04:05 10° S 19:09:37 60° ESE 19:10:53 48° ENE
Cosmos 1666 Rocket 3.8 19:07:54 10° S 19:11:16 50° SSE 19:11:16 50° SSE
Cosmos 1461 3.8 19:12:51 10° SSW 19:15:43 38° S 19:15:43 38° S
Cosmos 2279 Rocket 4.4 19:12:38 10° NNW 19:18:46 63° W 19:24:54 10° S
OAO 1 Rocket 4.5 19:13:40 10° W 19:18:56 68° S 19:19:43 59° SE
Cosmos 2297 3.7 19:14:39 10° NNW 19:20:01 57° NE 19:20:01 57° NE
USA 215 3.6 19:16:38 10° SSE 19:23:08 65° SW 19:29:39 10° NW
SJ-6B 4.3 19:24:15 10° SSW 19:27:59 38° W 19:31:50 10° NNW
Spot 2 Rocket 3.4 19:25:49 10° SSE 19:30:52 86° WSW 19:35:56 10° NNW
Cosmos 1538 Rocket 4.0 19:32:02 10° SSW 19:36:59 80° SSW 19:36:59 80° SSW
Nadezhda 4 Rocket 4.0 19:31:04 10° S 19:37:17 79° W 19:43:37 10° N
ALOS 3.0 19:42:21 10° S 19:46:53 51° W 19:51:26 10° NNW
Milstar 3 4.3 19:46:33 10° WSW 19:52:13 28° SSW 19:55:00 23° SSE
Cosmos 1092 Rocket 4.0 19:47:22 10° S 19:53:41 81° W 19:54:06 77° NNW
USA 229 DEB 4.1 19:56:42 10° SSW 20:01:34 49° S 20:01:34 49° S
USA 229 4.2 19:56:48 10° SSW 20:01:37 48° S 20:01:37 48° S
Resurs 01 Rocket 4.5 20:23:49 13° NW 20:23:49 13° NW 20:24:24 10° NW
